Regional Weather Roundup
Issued by NWS

Home | Current Version | Previous Version | Text Only | Print | Product List | Glossary On
Versions: 1 2 3 4 5 6 7 8 9 10 11 12 13 14 15 16 17 18 19 20 21 22 23 24 25 26 27 28 29 30 31 32 33 34 35 36 37 38 39 40 41 42 43 44 45 46 47 48 49 50
784
ASUS45 KBOI 250910
RWRID

IDAHO REGIONAL WEATHER ROUNDUP
NATIONAL WEATHER SERVICE BOISE ID
200 AM MST SUN FEB 25 2018

NOTE: "FAIR" INDICATES FEW OR NO CLOUDS BELOW 12000 FEET
WITH NO SIGNIFICANT WEATHER AND/OR OBSTRUCTIONS TO VISIBILITY

IDZ012-014-251000-
SOUTHWEST IDAHO


CITY           SKY/WX    TMP DP  RH WIND       PRES   REMARKS
BOISE          CLEAR     17  13  84 SE3       30.16R
CALDWELL       CLEAR     13   9  84 E3        30.18S
MOUNTAIN HOME  CLEAR     14  14 100 W5        30.16R WCI   6
$$

IDZ016-017-251000-
SOUTHCENTRAL IDAHO


CITY           SKY/WX    TMP DP  RH WIND       PRES   REMARKS
BURLEY         CLEAR     20  14  77 W25G38    30.03R WCI   2
JEROME         CLEAR     20  15  81 SW9       30.08R WCI   9
TWIN FALLS     CLEAR     19  13  77 SW14      30.09R WCI   6
$$

IDZ019>023-251000-
SOUTHEAST IDAHO


CITY           SKY/WX    TMP DP  RH WIND       PRES   REMARKS
IDAHO FALLS    CLOUDY    18  16  92 SW12      29.96R WCI   5
POCATELLO      LGT SNOW  22  18  85 SW22      30.02R FOG     WCI   6
REXBURG        MOCLDY    18  17  96 SW10      29.93R WCI   6
$$

IDZ006-010-011-018-031-032-251000-
CENTRAL IDAHO MOUNTAINS


CITY           SKY/WX    TMP DP  RH WIND       PRES   REMARKS
MCCALL         CLOUDY    15  12  88 SE5       29.97S WCI   8
HAILEY           N/A    N/A N/A N/A MISG        N/A
STANLEY          N/A     13   6  74 CALM      29.93S
SALMON         CLOUDY    19  17  92 N3        29.95F
CHALLIS        CLOUDY    22   8  55 S7        29.93S WCI  13
$$

IDZ002-004-006-007-026-251000-
NORTHERN IDAHO


CITY           SKY/WX    TMP DP  RH WIND       PRES   REMARKS
LEWISTON       MOCLDY    31  24  75 NE5       30.02F WCI  26
LOWELL           N/A     29  28  96 CALM      30.08F
COEUR D`ALENE  CLOUDY    25  20  81 SW5       29.93R WCI  19
MULLAN PASS    LGT SNOW  17  13  84 W9G21     29.72F FOG     WCI   6
$$




USA.gov is the U.S. government's official web portal to all federal, state and local government web resources and services.